P/2019 Y2 ( Fuls )

Japanese version
Home page
Updated on March 8, 2020

---------------------------------------------------------------------

* Profile

Discovery Date December 21, 2019
Magnitude 18.8 mag
Discoverer D. Carson Fuls (Mount Lemmon Survey)

* Pictures

* Orbital Elements

Epoch 2020 Feb. 1.0 TT = JDT 2458880.5
T 2020 Jan. 31.89119 TT                                 Bell
q   2.1246708            (2000.0)            P               Q
n   0.15366283     Peri.   92.36989     -0.98936269     -0.11858408
a   3.4521540      Node    80.82831     +0.07420836     -0.90959873
e   0.3845377      Incl.    4.89606     +0.12511826     -0.39820594
P   6.41
From 278 observations 2019 Dec. 21-2020 Mar. 4, mean residual 0".6.

* Finding Charts

* Magnitudes Graph

        m1 = 12.8 + 5 log d + 10.0 log r

---------------------------------------------------------------------

The orbital elements are published on M.P.E.C. 2020-E26.
The charts are made with StellaNavigator Ver.10 (AstroArts).
The magnitudes graphs are made with Comet for Windows.

---------------------------------------------------------------------

Copyright(C) Seiichi Yoshida (comet@aerith.net). All rights reserved.